904  
ASUS45 KBOI 271110  
RWRID  
 
IDAHO REGIONAL WEATHER ROUNDUP  
NATIONAL WEATHER SERVICE BOISE ID  
500 AM MDT SAT MAY 27 2017  
 
NOTE: "FAIR" INDICATES FEW OR NO CLOUDS BELOW 12000 FEET  
WITH NO SIGNIFICANT WEATHER AND/OR S TO VISIBILITY
 
 
IDZ012-014-271200-  
SOUTHWEST IDAHO  
 
 
CITY SKY/WX TMP DP RH WIND PRES REMARKS
 
BOISE CLEAR 50 40 68 SE8 30.10R  
CALDWELL CLEAR 46 41 82 E6 30.10R  
MOUNTAIN HOME CLEAR 43 43 100 E7 30.11R  

 
 
IDZ016-017-271200-  
SOUTHCENTRAL IDAHO  
 
 
CITY SKY/WX TMP DP RH WIND PRES REMARKS
 
BURLEY CLEAR 39 36 89 SW6 30.15R WCI 35  
JEROME CLEAR 41 39 93 E6 30.15R  
TWIN FALLS CLEAR 42 38 85 S9 30.15R  

 
 
IDZ019>023-271200-  
SOUTHEAST IDAHO  
 
 
CITY SKY/WX TMP DP RH WIND PRES REMARKS
 
IDAHO FALLS CLEAR 35 35 100 CALM 30.17S  
POCATELLO CLEAR 36 36 100 S3 30.17R  
REXBURG CLEAR 36 35 96 CALM 30.17S  

 
 
IDZ006-010-011-018-031-032-271200-  
CENTRAL IDAHO MOUNTAINS  
 
 
CITY SKY/WX TMP DP RH WIND PRES REMARKS
 
MCCALL CLEAR 37 34 89 CALM 30.15S  
HAILEY CLEAR 37 36 93 NW15 30.19R WCI 28  
STANLEY N/A 28 26 92 S3 30.23R  
SALMON CLEAR 39 37 93 CALM 30.14R  
CHALLIS CLEAR 36 32 85 W5 30.17R WCI 32  

 
 
IDZ002-004-006-007-026-271200-  
NORTHERN IDAHO  
 
 
CITY SKY/WX TMP DP RH WIND PRES REMARKS
 
LEWISTON CLEAR 53 43 68 CALM 30.07R  
LOWELL N/A 46 43 89 CALM 30.16R  
COEUR D'ALENE CLEAR 53 42 66 SE7 30.08R  
MULLAN PASS MOCLDY 45 31 58 NW6 30.16R  

 
 
 
CLICK HERE TO GO TO PREVIOUS BULLETINS.

The Nexlab ID Page Main Text Page